| time (UTC) | temp C | wind direction | speed KPH | gust KPH | rain 1hr cm | rain 24hr cm | rain mn cm | humidity % | barometer mb |
| 20260503211506 | 17 | 253 | 1.6 | 9.7 | 0.00 | 0.00 | 0.00 | 53 | 1011.3 |
| 20260503210005 | 17 | 215 | 0.0 | 8.0 | 0.00 | 0.00 | 0.00 | 54 | 1011.4 |
| 20260503204503 | 17 | 273 | 0.0 | 9.7 | 0.00 | 0.00 | 0.00 | 54 | 1011.5 |
| 20260503203002 | 17 | 284 | 0.0 | 9.7 | 0.00 | 0.00 | 0.00 | 56 | 1011.7 |
| 20260503201501 | 17 | 232 | 1.6 | 6.4 | 0.00 | 0.00 | 0.00 | 54 | 1011.7 |
| 20260503200100 | 17 | 300 | 0.0 | 9.7 | 0.00 | 0.00 | 0.00 | 54 | 1011.6 |
| 20260503194601 | 16 | 236 | 3.2 | 11.3 | 0.00 | 0.00 | 0.00 | 57 | 1012.0 |
| 20260503193055 | 16 | 247 | 3.2 | 12.9 | 0.00 | 0.00 | 0.00 | 59 | 1012.1 |
| 20260503191551 | 15 | 250 | 1.6 | 9.7 | 0.00 | 0.00 | 0.00 | 62 | 1012.1 |
| 20260503190055 | 15 | 202 | 0.0 | 6.4 | 0.00 | 0.00 | 0.00 | 62 | 1012.3 |
| 20260503184605 | 15 | 184 | 0.0 | 11.3 | 0.00 | 0.00 | 0.00 | 64 | 1012.3 |
| 20260503183052 | 15 | 200 | 0.0 | 6.4 | 0.00 | 0.00 | 0.00 | 64 | 1012.4 |
| 20260503181550 | 14 | 207 | 0.0 | 4.8 | 0.00 | 0.00 | 0.00 | 70 | 1012.5 |
| 20260503180040 | 13 | 207 | 0.0 | 4.8 | 0.00 | 0.00 | 0.00 | 73 | 1012.6 |
| 20260503174535 | 12 | 212 | 0.0 | 9.7 | 0.00 | 0.00 | 0.00 | 77 | 1012.5 |
| 20260503173035 | 12 | 212 | 0.0 | 8.0 | 0.00 | 0.00 | 0.00 | 80 | 1012.6 |
| 20260503171537 | 11 | 312 | 0.0 | 8.0 | 0.00 | 0.00 | 0.00 | 85 | 1012.6 |
| 20260503081537 | 11 | 323 | 0.0 | 0.0 | 0.00 | 0.00 | 0.00 | 84 | 1010.7 |
| 20260503071540 | 11 | 190 | 0.0 | 4.8 | 0.00 | 0.00 | 0.00 | 85 | 1010.5 |
| 20260503054527 | 11 | 305 | 0.0 | 0.0 | 0.00 | 0.00 | 0.00 | 88 | 1010.1 |
| 20260503053033 | 11 | 254 | 0.0 | 0.0 | 0.00 | 0.00 | 0.00 | 88 | 1010.0 |
| 20260503051523 | 11 | 207 | 0.0 | 0.0 | 0.00 | 0.00 | 0.00 | 87 | 1009.8 |
| 20260503050024 | 11 | 92 | 0.0 | 1.6 | 0.00 | 0.00 | 0.00 | 87 | 1009.7 |
| 20260503044541 | 11 | 202 | 0.0 | 0.0 | 0.00 | 0.00 | 0.00 | 87 | 1009.4 |
| 20260503043037 | 11 | 11 | 0.0 | 0.0 | 0.00 | 0.00 | 0.00 | 87 | 1009.1 |
| 20260503041520 | 11 | 9 | 0.0 | 0.0 | 0.00 | 0.00 | 0.00 | 86 | 1009.2 |
| 20260503040020 | 11 | 355 | 0.0 | 0.0 | 0.00 | 0.00 | 0.00 | 86 | 1009.2 |
| 20260503034519 | 11 | 5 | 0.0 | 0.0 | 0.00 | 0.00 | 0.00 | 85 | 1009.2 |
| 20260503033020 | 11 | 27 | 0.0 | 1.6 | 0.00 | 0.00 | 0.00 | 85 | 1009.2 |
| 20260503031526 | 11 | 284 | 0.0 | 0.0 | 0.00 | 0.00 | 0.00 | 85 | 1009.3 |
| 20260503030019 | 11 | 221 | 0.0 | 4.8 | 0.00 | 0.00 | 0.00 | 84 | 1009.0 |
| 20260503024517 | 11 | 229 | 0.0 | 3.2 | 0.00 | 0.00 | 0.00 | 83 | 1008.9 |
| 20260503023017 | 12 | 255 | 0.0 | 8.0 | 0.00 | 0.00 | 0.00 | 81 | 1008.8 |
| 20260503021517 | 12 | 263 | 0.0 | 4.8 | 0.00 | 0.00 | 0.00 | 78 | 1008.8 |
| 20260503020017 | 13 | 267 | 0.0 | 8.0 | 0.00 | 0.00 | 0.00 | 75 | 1008.7 |
| 20260503014515 | 14 | 237 | 0.0 | 3.2 | 0.00 | 0.00 | 0.00 | 72 | 1008.6 |
| 20260503013015 | 15 | 327 | 0.0 | 3.2 | 0.00 | 0.00 | 0.00 | 70 | 1008.4 |
| 20260503011515 | 15 | 205 | 0.0 | 8.0 | 0.00 | 0.00 | 0.00 | 69 | 1008.5 |
| 20260503010014 | 16 | 226 | 0.0 | 6.4 | 0.00 | 0.00 | 0.00 | 67 | 1008.3 |
| 20260503004515 | 16 | 184 | 0.0 | 12.9 | 0.00 | 0.00 | 0.00 | 65 | 1008.4 |
| 20260503003014 | 16 | 304 | 1.6 | 8.0 | 0.00 | 0.00 | 0.00 | 65 | 1008.3 |
| 20260503001513 | 17 | 232 | 3.2 | 19.3 | 0.00 | 0.00 | 0.00 | 64 | 1008.3 |
| 20260503000026 | 17 | 232 | 1.6 | 6.4 | 0.00 | 0.00 | 0.00 | 63 | 1008.2 |
| 20260502234513 | 17 | 238 | 1.6 | 9.7 | 0.00 | 0.00 | 0.00 | 63 | 1008.3 |
| 20260502233011 | 18 | 279 | 0.0 | 9.7 | 0.00 | 0.00 | 0.00 | 62 | 1008.5 |
| 20260502231508 | 18 | 140 | 0.0 | 8.0 | 0.00 | 0.00 | 0.00 | 63 | 1008.6 |
| 20260502230008 | 18 | 242 | 1.6 | 9.7 | 0.00 | 0.00 | 0.00 | 62 | 1008.8 |
| 20260502224505 | 18 | 213 | 1.6 | 8.0 | 0.00 | 0.00 | 0.00 | 65 | 1009.1 |
| 20260502223008 | 18 | 190 | 1.6 | 11.3 | 0.00 | 0.00 | 0.00 | 63 | 1009.4 |
| 20260502221501 | 18 | 236 | 1.6 | 9.7 | 0.00 | 0.00 | 0.00 | 63 | 1009.6 |
| 20260502220109 | 18 | 270 | 1.6 | 12.9 | 0.00 | 0.00 | 0.00 | 64 | 1009.9 |
| 20260502214555 | 18 | 215 | 1.6 | 9.7 | 0.00 | 0.00 | 0.00 | 62 | 1010.2 |
| 20260502213053 | 18 | 207 | 0.0 | 8.0 | 0.00 | 0.00 | 0.00 | 65 | 1010.4 |